Regional Weather Roundup
Issued by NWS Sioux Falls, SD

Home | Current Version | Previous Version | Graphics & Text | Print | Product List | Glossary On
Versions: 1 2 3 4 5 6 7 8 9 10 11 12 13 14 15 16 17 18 19 20 21 22 23 24 25 26 27 28 29 30 31 32 33 34 35 36 37 38 39 40 41 42 43 44 45 46 47 48 49 50
000
ASUS43 KFSD 050110
RWRFSD

WEATHER ROUNDUP FOR SE SOUTH DAKOTA/SW MINNESOTA/NW IOWA
NATIONAL WEATHER SERVICE SIOUX FALLS SD
800 PM CDT SAT JUL 04 2015

NOTE: "FAIR" INDICATES FEW OR NO CLOUDS BELOW 12,000 FEET WITH NO
SIGNIFICANT WEATHER AND OR OBSTRUCTIONS TO VISIBILITY.


SDZ038>040-050-052>070-050200-
SOUTHEAST SOUTH DAKOTA

CITY           SKY/WX    TMP DP  RH WIND       PRES   REMARKS
BROOKINGS      SUNNY     77  64  65 S12       29.87F
CHAMBERLAIN    SUNNY     82  70  67 SE14G20   29.76S
HURON          SUNNY     81  67  62 SE17      29.78S
MADISON        FAIR      77  66  69 S13G22    29.86F
MITCHELL       SUNNY     81  68  64 S14G22    29.81S
SIOUX FALLS    PTSUNNY   78  65  63 S13       29.86F
WINNER         FAIR      87  63  44 S16       29.76F
YANKTON        SUNNY     79  66  65 SE10      29.83F
$$

MNZ071-072-080-081-089-090-097-098-050200-
SOUTHWEST MINNESOTA

CITY           SKY/WX    TMP DP  RH WIND       PRES   REMARKS
FAIRMONT       PTCLDY    75  57  53 S8        29.91F
JACKSON        CLEAR     77  61  57 S9        29.92S
LUVERNE        SUNNY     79  64  61 S10       29.89F
MARSHALL       SUNNY     79  63  57 S8          N/A
MONTEVIDEO     SUNNY     79  64  61 SW7       29.85S HAZE
PIPESTONE      SUNNY     77  64  65 S12G17    29.88F
REDWOOD FALLS  PTCLDY    80  62  54 S10       29.86F HAZE
TRACY          SUNNY     79  64  59 S7        29.88S
WINDOM         CLEAR     77  61  57 S6        29.90S
WORTHINGTON    CLEAR     75  61  60 S9        29.90F
$$

IAZ001>003-012>014-020>022-031-032-NEZ013-014-SDZ071-050200-
NORTHWEST IOWA

CITY           SKY/WX    TMP DP  RH WIND       PRES   REMARKS
CHEROKEE       CLEAR     75  64  68 S5        29.91F
DENISON        PTCLDY    75  64  69 VRB6      29.91S
ESTHERVILLE    CLEAR     74  61  63 S8        29.91F
LE MARS        CLEAR     77  66  69 S8        29.89F
ORANGE CITY    CLEAR     75  64  69 S5        29.90S
SHELDON        CLEAR     75  64  69 S9        29.89S
SIOUX CITY     CLEAR     78  63  59 S8        29.88F
SPENCER        CLEAR     76  59  55 S7        29.91F
STORM LAKE     PTCLDY    73  63  68 S7        29.93F
$$

ABBREVIATIONS USED IN REMARKS
   TC - TEMPERATURE IN CELSIUS
  WCI - WIND CHILL INDEX
   HX - HEAT INDEX
  VSB - VISIBILITY




USA.gov is the U.S. government's official web portal to all federal, state and local government web resources and services.